Regional Weather Roundup
Issued by NWS Grand Forks, ND

Home | Current Version | Previous Version | Graphics & Text | Print | Product List | Glossary On
Versions: 1 2 3 4 5 6 7 8 9 10 11 12 13 14 15 16 17 18 19 20 21 22 23 24 25 26 27 28 29 30 31 32 33 34 35 36 37 38 39 40 41 42 43 44 45 46 47 48 49 50
000
ASUS43 KFGF 170831
RWRFGF
PRAIRIE TO PINES  WEATHER ROUNDUP
NATIONAL WEATHER SERVICE EASTERN NORTH DAKOTA/GRAND FORKS ND
200 AM CST WED DEC 17 2014

 **SATELLITE DATA USED TO AUGMENT SKY COVER AT AUTOMATED STATIONS**
 *****  WEATHER ACROSS EASTERN NORTH DAKOTA  *****

CITY           SKY/WX    TMP DP  RH WIND       PRES   REMARKS
GRAND FORKS    PTCLDY     2  -1  88 NW7       30.38S WCI -11
GRAND FRKS AFB PTCLDY     1   0  94 NW5       30.39R WCI  -9
DEVILS LAKE    PTCLDY     1  -9  60 CALM      30.32R
FARGO          CLEAR      6   1  80 NW7       30.36F WCI  -6
WAHPETON ARPT  SUNNY      5   1  85 NW3       30.36S
$$

 ***** WEATHER ACROSS CENTRAL AND WESTERN NORTH DAKOTA  *****

CITY           SKY/WX    TMP DP  RH WIND       PRES   REMARKS
BISMARCK       CLOUDY    14  11  87 SE6       30.32S WCI   5
MINOT          CLOUDY    11   6  81 CALM      30.29S
JAMESTOWN      PTCLDY     1  -4  79 NW5       30.32S WCI  -9
MINOT AFB      CLOUDY     5   4  96 E2        30.29F
GARRISON         N/A     15  11  83 SE9       30.27S WCI   3
WILLISTON      CLOUDY    21  15  78 SE8       30.20F WCI  11
DICKINSON      CLOUDY    17  12  80 S10       30.16F WCI   5
HETTINGER      CLOUDY    16  13  88 SE13      30.18F WCI   2
$$

 *****  OTHER AIRPORT OBSERVATIONS IN OUR AREA  *****

CITY           SKY/WX    TMP DP  RH WIND       PRES   REMARKS
WALHALLA         N/A      0  -2  92 CALM      30.40R
GRAFTON AIRPOR NOT AVBL
VALLEY CITY AR FAIR       5   5 100 NW5       30.33S WCI  -4
CANDO          PTSUNNY   -2  -6  84 CALM      30.34S
CAVALIER APRT  FAIR       5   1  85 NW7       30.39F WCI  -7
GWINNER        SUNNY      9   7  92 MISG      30.36R
SHEYENNE NWR     N/A      4  -1  79 W2        29.95
ROLLA          FAIR      -4  -8  84 W7        30.31S WCI -18
 ***** THE ABOVE OBSERVATIONS ARE NON NWS ARE NOT QUALITY
       CONTROLLED AND MAY MIS-REPORT RAIN FOR SNOW...
$$

  *****  WEATHER ACROSS NORTHERN MINNESOTA  *****

CITY           SKY/WX    TMP DP  RH WIND       PRES   REMARKS
FLAG ISLAND    CLOUDY    10   7  85 NW7       30.32R WCI   0
WARROAD        PTCLDY     7   1  78 W3        30.33R
ROSEAU         PTCLDY     5   0  78 NW5       30.34R WCI  -4
HALLOCK        PTCLDY     1  -2  85 NW5       30.38S WCI  -8
THF RVR FALLS  PTCLDY     3   1  92 NW5       30.34R WCI  -6
BAUDETTE       PTCLDY     9   6  88 NW7       30.29S WCI  -2
WASKISH        CLOUDY    10   9  92 CALM      30.28S
CROOKSTON      PTCLDY     3   0  85 N7        30.38S WCI  -9
$$
  *****  WEATHER ACROSS CENTRAL AND WEST MINNESOTA  *****

CITY           SKY/WX    TMP DP  RH WIND       PRES   REMARKS
FOSSTON        FLURRIES   5   1  85 NW7       30.32R WCI  -7
BEMIDJI        CLOUDY    11   8  87 NW9       30.27R WCI  -2
PARK RAPIDS    CLOUDY    11   7  84 NW8       30.25R WCI  -1
ELBOW LAKE     FAIR       3   1  90 NW7       30.31S WCI  -9
WADENA         FLURRIES   7   5  92 NW5       30.27S WCI  -2
DETROIT LAKES  FLURRIES   5   3  92 NW7       30.30S WCI  -7
MOORHEAD       CLEAR      5   5 100 NW7       30.36S WCI  -7
FERGUS FALLS   CLEAR      5   1  85 N8        30.36S WCI  -8
MORRIS MN      PTCLDY     7   3  85 NW9       30.32R WCI  -7
STAPLES        CLOUDY     7   5  92 W8        30.27S WCI  -6
$$
  *****  WEATHER ELSEWHERE ACROSS MINNESOTA  *****

CITY           SKY/WX    TMP DP  RH WIND       PRES   REMARKS
DULUTH         FLURRIES  13   8  81 NW9       30.16S WCI   1
INTRNTL FALLS  CLOUDY    12   7  80 N9        30.25S WCI   0
ELY            LGT SNOW  10   7  85 N5        30.17S WCI   2
CLOQUET        CLOUDY    12   9  85 W7        30.20R WCI   2
WHEATON        FLURRIES   3   1  92 W6        30.37S WCI  -8
BRAINERD       CLOUDY    10   6  84 NW7       30.27R WCI  -1
HIBBING        LGT SNOW  13   6  74 N10       30.20S WCI   0
ALEXANDRIA     CLEAR      7   4  87 NW6       30.28S WCI  -3
SAINT CLOUD    CLEAR     11   5  77 NW7       30.27S WCI   0
MINNEAPOLIS    MOCLDY    13   8  81 NW8       30.27S WCI   2
$$

  *****  WEATHER ACROSS SOUTH DAKOTA  *****

CITY           SKY/WX    TMP DP  RH WIND       PRES   REMARKS
SIOUX FALLS    PTCLDY     5   2  87 CALM      30.33R
BROOKINGS      NOT AVBL
WATERTOWN      PTCLDY     4  -1  80 W5        30.29R WCI  -5
HURON          PTCLDY     0  -3  87 NW3       30.36R
SISSETON         N/A      6   3  87 NW9       30.35R WCI  -8
ABERDEEN       PTCLDY     7   3  84 NW5       30.35S WCI  -2
MITCHELL       MOCLDY     7   4  87 SW7       30.36S WCI  -5
PIERRE         CLOUDY    17  13  84 E7        30.29F WCI   8
MOBRIDGE       CLOUDY    18  11  74 SE5       30.27F WCI  11
RAPID CITY     CLOUDY    18  16  92 SE13      30.10F WCI   5
$$

  *****  SOME WEATHER IN NEARBY STATES *****

CITY           SKY/WX    TMP DP  RH WIND       PRES   REMARKS
GLASGOW MT     CLOUDY    18  14  84 SE13      30.11F WCI   5
GREAT FALLS MT CLOUDY    22  21  96 CALM      29.91F
CHEYENNE WY    CLOUDY    24  18  77 W6        29.97F WCI  17
SCOTTSBLUFF NE CLOUDY    20  17  88 SE17      30.04F WCI   5
OMAHA NE       PTCLDY    18  13  80 N10       30.38R WCI   6
DES MOINES IA  FLURRIES  18  10  71 MISG      30.34R
DAVENPORT IA   CLOUDY    21  14  74 NW16      30.26R WCI   7
CHICAGO IL     CLOUDY    28  22  78 W12       30.14S WCI  18
EAU CLAIRE WI  CLOUDY    20  13  74 NW9       30.20S WCI   9
LA CROSSE WI   CLOUDY    24  15  68 NW14      30.23R WCI  12
$$

  *****  SOME NATIONAL WEATHER *****

CITY           SKY/WX    TMP DP  RH WIND       PRES   REMARKS
LA GUARDIA NY  CLOUDY    44  42  93 CALM      29.82R FOG
RALEIGH NC     CLEAR     46  38  73 NW6       30.01R
ATLANTA GA     CLEAR     41  35  79 N9        30.16S
NEW ORLEANS LA CLEAR     50  39  66 NE12      30.28R
OKLAHOMA CITY  CLOUDY    37  25  61 NE5       30.27F
ALBUQUERQUE NM MOCLDY    35  26  69 N3        30.07F
SALT LAKE CITY MOCLDY    33  29  85 CALM      29.99F
LOS ANGELES CA CLOUDY    55  52  89 E9        29.98F
BOISE ID       CLEAR     36  30  79 SE7       29.98S
SEATTLE WA     MOCLDY    48  30  49 E12       29.82S
$$

*** WEATHER ACROSS MANITOBA...SASKATCHEWAN AND ONTARIO ***
                ***ONTARIO***

CITY           SKY/WX    TMP DP  RH WIND       PRES   REMARKS
GERALDTON      FLURRIES   7   3  85 N10       30.15S WCI  -8
THUNDER BAY    LGT SNOW  16  12  86 VRB2      30.16S
SIOUX LOOKOUT  CRYSTALS   7   3  85 N6        30.27  WCI  -3
TORONTO        LGT RAIN  39  39 100 W5        29.75S
BIG TROUT LK   CLEAR    -17 -22  76 CALM      30.36F
PICKLE LAKE    NOT AVBL
DRYDEN         CLOUDY     9   7  92 N7        30.27R WCI  -3
KENORA         PTCLDY     5   1  85 N8        30.29  WCI  -8
$$
                *** MANITOBA***

CITY           SKY/WX    TMP DP  RH WIND       PRES   REMARKS
BRANDON        CLEAR     -4  -9  77 NW3       30.35S
DAUPHIN        CLOUDY     9   5  85 SW8       30.35F WCI  -4
ISLAND LAKE    CLEAR     -4  -8  84 S2        30.36S
PILOT MOUND      N/A      0  -4  85 N2          N/A
THE PAS        CLOUDY    18  14  86 S5        30.26F WCI  11
THOMPSON       FLURRIES  14  12  92 SW13G20   30.23S WCI   0
WINNIPEG       CLEAR     -4  -9  77 N2        30.40F
LYNN LAKE      FLURRIES  12  10  92 SW10      30.14S WCI  -1
CHURCHILL      CLEAR      5   3  92 W8        30.13S WCI  -8
GILLAM         FLURRIES   7   3  85 SW8       30.22S WCI  -6
$$
                ***SASKATCHEWAN***

CITY           SKY/WX    TMP DP  RH WIND       PRES   REMARKS
ESTEVAN        FLURRIES  18  12  79 S9        30.23F WCI   6
KINDERSLEY     CLOUDY    21  19  93 S12       30.02F WCI   9
LLOYDMINSTER   CLOUDY    18  16  93 SE14      30.02F WCI   4
PRINCE ALBERT  CLOUDY    19  16  86 S7        30.17F WCI  10
REGINA         CLOUDY    19  16  86 S10G18    30.18F WCI   8
YORKTON        FLURRIES  16  10  79 S8        30.25F WCI   5
N. BATTLEFORD  CLOUDY    19  18  93 S9        30.12F WCI   9
LA RONGE       CLOUDY    14  12  92 SW5       30.17F WCI   6
SASKATOON      CLOUDY    18  16  93 S10G17    30.16S WCI   6
SWIFT CURRENT  CLOUDY    16  16 100 S16G23    30.01F FOG     WCI   0
$$
NOTE: THESE ARE AUTOMATED STATIONS WITH LIMITED QUALITY CONTROL
      "FAIR" INDICATES FEW OR NO CLOUDS BELOW 12,000 FEET WITH NO
      SIGNIFICANT WEATHER AND/OR OBSTRUCTIONS TO VISIBILITY.
      SKY/WX - SKY CONDITION AND SIGNIFICANT WEATHER.
      TMP - AIR TEMPERATURE.    DP   - DEWPOINT TEMPERATURE.
      RH  - RELATIVE HUMIDITY.  PRES - PRESSURE.
      HX  - HEAT INDEX.         WCI  - WIND CHILL INDEX.
$


USA.gov is the U.S. government's official web portal to all federal, state and local government web resources and services.